Location: Ostrava
(49.8330°N, 18.2830°E)
Time: 03:06:32
(UTC+02:00)

Iridium 39 - Visible Passes

Search period start: 30 May 2016 00:00
Search period end: 09 June 2016 00:00
Orbit: 776 x 779 km, 86.4° (Epoch: 29 May)

Date Brightness Start Highest point End Pass type
(mag) Time Alt. Az. Time Alt. Az. Time Alt. Az.
30 May 8.2 21:36:57 10° SW 21:41:24 28° WNW 21:45:53 10° NNW visible
01 Jun 9.0 22:13:23 10° W 22:15:41 13° WNW 22:18:00 10° NW visible
02 Jun 8.7 21:37:47 10° WSW 21:41:42 21° WNW 21:45:38 10° NNW visible
05 Jun 8.9 21:38:57 10° WSW 21:42:03 16° WNW 21:45:10 10° NNW visible
08 Jun 9.3 21:40:45 10° W 21:42:27 11° WNW 21:44:10 10° NW visible
